Regional Weather Roundup
Issued by NWS

Home | Current Version | Previous Version | Text Only | Print | Product List | Glossary On
Versions: 1 2 3 4 5 6 7 8 9 10 11 12 13 14 15 16 17 18 19 20 21 22 23 24 25 26 27 28 29 30 31 32 33 34 35 36 37 38 39 40 41 42 43 44 45 46 47 48 49 50
000
ASUS43 KLMK 250610
RWRKY
KENTUCKY REGIONAL WEATHER ROUNDUP
NATIONAL WEATHER SERVICE LOUISVILLE KY
100 AM EST SUN FEB 25 2018

NOTE "FAIR" INDICATES FEW OR NO CLOUDS BELOW 12,000 FEET
WITH NO SIGNIFICANT WEATHER AND/OR OBSTRUCTIONS TO VISIBILITY.

KYZ001>023-026-027-061>063-070>075-250700-
WESTERN AND SOUTH CENTRAL KENTUCKY

CITY           SKY/WX    TMP DP  RH WIND       PRES   REMARKS
PADUCAH        MOCLDY    61  57  87 W17G28    29.79R
HENDERSON      FAIR      62  58  86 SW17      29.73R
OWENSBORO      LGT RAIN  61  58  90 SW16G29   29.74S
HOPKINSVILLE   DRIZZLE   57  55  94 SW10      29.80F
BOWLING GREEN  LGT RAIN  60  57  89 SW15G24   29.84R
GLASGOW        RAIN     N/A N/A N/A SW12G17   29.85S
$$

KYZ024-025-028>034-038-045-046-053-250700-
NORTH CENTRAL KENTUCKY

CITY           SKY/WX    TMP DP  RH WIND       PRES   REMARKS
LOUISVILLE/SDF LGT RAIN  62  58  86 SW12      29.76R
LOUISVILLE/LOU LGT RAIN  60  59  96 S13       29.77R
FORT KNOX      RAIN      62  59  90 SW16G26   29.78R
$$

KYZ035>037-039>044-047>052-055>060-089>105-250700-
NORTHEAST KENTUCKY

CITY           SKY/WX    TMP DP  RH WIND       PRES   REMARKS
LEXINGTON      RAIN      59  56  89 W16G23    29.82S FOG
COVINGTON      RAIN      57  56  96 S17       29.71F
FRANKFORT      RAIN      60  56  86 SW12      29.79F FOG
$$

KYZ054-064>069-076>088-106>120-250700-
SOUTHEAST KENTUCKY

CITY           SKY/WX    TMP DP  RH WIND       PRES   REMARKS
JACKSON        MOCLDY    63  58  83 VRB6      29.84F
LONDON         LGT RAIN  67  57  70 S13G20    29.86S
SOMERSET       HVY RAIN  68  57  68 W15G25    29.88R
MIDDLESBORO    LGT RAIN  64  60  85 S12G26    29.94R
MONTICELLO     RAIN      64  59  82 W29G40    29.92R
$$





USA.gov is the U.S. government's official web portal to all federal, state and local government web resources and services.